�������l�o���
Date,Time,MP-1(��Sv/h),MP-2(��Sv/h),MP-3(��Sv/h),MP-4(��Sv/h),MP-5(��Sv/h),MP-6(��Sv/h),MP-7(��Sv/h),MP-8(��Sv/h),����,����(m/s),���J
2024/02/22,00:00,0.490,0.737,0.470,0.923,0.660,0.306,0.543,0.513,�k�k��,9.0,�L
2024/02/22,00:10,0.492,0.737,0.469,0.923,0.662,0.305,0.543,0.512,�k�k��,9.0,�L
2024/02/22,00:20,0.491,0.737,0.471,0.925,0.660,0.305,0.542,0.512,�k�k��,9.4,�L
2024/02/22,00:30,0.491,0.737,0.470,0.924,0.662,0.306,0.546,0.513,�k�k��,8.4,�L
2024/02/22,00:40,0.492,0.736,0.468,0.924,0.663,0.306,0.545,0.512,�k�k��,9.0,�L
2024/02/22,00:50,0.491,0.739,0.469,0.924,0.662,0.306,0.544,0.512,�k�k��,9.0,��
2024/02/22,01:00,0.489,0.739,0.468,0.923,0.662,0.304,0.545,0.511,�k�k��,7.9,�L
2024/02/22,01:10,0.491,0.738,0.469,0.924,0.661,0.305,0.545,0.512,�k�k��,7.5,�L
2024/02/22,01:20,0.491,0.738,0.468,0.926,0.662,0.304,0.545,0.512,�k��,8.5,�L
2024/02/22,01:30,0.490,0.738,0.468,0.925,0.662,0.303,0.543,0.514,�k�k��,8.3,�L
2024/02/22,01:40,0.491,0.738,0.469,0.925,0.662,0.306,0.544,0.514,�k�k��,7.2,�L
2024/02/22,01:50,0.491,0.740,0.469,0.926,0.663,0.305,0.544,0.512,�k�k��,7.9,�L
2024/02/22,02:00,0.491,0.740,0.470,0.925,0.662,0.306,0.545,0.512,�k�k��,8.1,�L
2024/02/22,02:10,0.492,0.740,0.470,0.927,0.665,0.308,0.543,0.512,�k�k��,7.2,�L
2024/02/22,02:20,0.492,0.741,0.471,0.928,0.663,0.307,0.546,0.512,�k��,8.3,�L
2024/02/22,02:30,0.493,0.738,0.469,0.928,0.664,0.307,0.545,0.512,�k��,8.6,�L
2024/02/22,02:40,0.491,0.741,0.469,0.925,0.664,0.305,0.546,0.514,�k�k��,7.8,�L
2024/02/22,02:50,0.491,0.739,0.469,0.926,0.665,0.307,0.546,0.513,�k�k��,7.5,�L
2024/02/22,03:00,0.493,0.741,0.471,0.928,0.666,0.306,0.545,0.512,�k�k��,7.8,�L
2024/02/22,03:10,0.495,0.741,0.471,0.928,0.666,0.307,0.546,0.513,�k�k��,8.2,�L
2024/02/22,03:20,0.495,0.742,0.473,0.928,0.666,0.307,0.546,0.513,�k�k��,8.7,�L
2024/02/22,03:30,0.495,0.742,0.473,0.927,0.667,0.308,0.547,0.514,�k�k��,8.2,�L
2024/02/22,03:40,0.494,0.742,0.471,0.930,0.668,0.307,0.546,0.514,�k�k��,7.6,�L
2024/02/22,03:50,0.495,0.744,0.471,0.928,0.669,0.309,0.546,0.512,�k�k��,7.1,�L
2024/02/22,04:00,0.495,0.744,0.473,0.930,0.668,0.309,0.547,0.513,�k�k��,7.3,�L
2024/02/22,04:10,0.497,0.743,0.474,0.930,0.668,0.312,0.548,0.513,�k�k��,7.2,�L
2024/02/22,04:20,0.497,0.744,0.474,0.931,0.670,0.311,0.547,0.514,�k�k��,7.2,�L
2024/02/22,04:30,0.495,0.747,0.475,0.932,0.670,0.312,0.549,0.514,�k�k��,8.5,�L
2024/02/22,04:40,0.496,0.744,0.476,0.931,0.670,0.314,0.546,0.513,�k�k��,7.2,�L
2024/02/22,04:50,0.498,0.746,0.475,0.935,0.671,0.315,0.549,0.514,�k�k��,8.0,�L
2024/02/22,05:00,0.497,0.746,0.477,0.935,0.670,0.315,0.550,0.516,�k�k��,7.1,�L
2024/02/22,05:10,0.497,0.744,0.476,0.935,0.671,0.312,0.547,0.514,�k�k��,7.3,�L
2024/02/22,05:20,0.497,0.745,0.475,0.932,0.668,0.311,0.548,0.513,�k�k��,7.4,�L
2024/02/22,05:30,0.496,0.743,0.474,0.930,0.669,0.310,0.547,0.513,�k�k��,7.5,�L
2024/02/22,05:40,0.495,0.744,0.474,0.929,0.668,0.309,0.546,0.512,�k�k��,7.9,�L
2024/02/22,05:50,0.494,0.741,0.471,0.928,0.668,0.309,0.546,0.511,�k�k��,8.3,�L
2024/02/22,06:00,0.492,0.740,0.471,0.928,0.666,0.306,0.546,0.512,�k�k��,6.8,�L
2024/02/22,06:10,0.493,0.742,0.472,0.927,0.666,0.309,0.546,0.513,�k�k��,7.5,�L
2024/02/22,06:20,0.495,0.746,0.473,0.930,0.670,0.310,0.548,0.512,�k�k��,7.8,�L
2024/02/22,06:30,0.496,0.744,0.473,0.931,0.668,0.312,0.546,0.514,�k�k��,8.7,�L
2024/02/22,06:40,0.497,0.744,0.473,0.929,0.670,0.313,0.546,0.514,�k�k��,7.9,�L
2024/02/22,06:50,0.497,0.744,0.476,0.933,0.668,0.314,0.549,0.514,�k�k��,8.6,�L
2024/02/22,07:00,0.499,0.743,0.473,0.930,0.668,0.313,0.547,0.513,�k�k��,8.3,�L
2024/02/22,07:10,0.497,0.742,0.475,0.932,0.669,0.313,0.544,0.512,�k�k��,9.2,�L
2024/02/22,07:20,0.496,0.739,0.474,0.930,0.666,0.315,0.546,0.512,�k�k��,8.5,�L
2024/02/22,07:30,0.495,0.741,0.473,0.928,0.665,0.312,0.544,0.511,�k�k��,8.0,�L
2024/02/22,07:40,0.495,0.735,0.471,0.928,0.662,0.312,0.544,0.511,�k�k��,8.9,�L
2024/02/22,07:50,0.491,0.733,0.470,0.926,0.660,0.311,0.543,0.511,�k�k��,9.0,�L
2024/02/22,08:00,0.490,0.731,0.468,0.925,0.660,0.310,0.541,0.510,�k�k��,8.3,�L
2024/02/22,08:10,0.491,0.733,0.468,0.924,0.657,0.310,0.541,0.511,�k�k��,9.3,�L
2024/02/22,08:20,0.488,0.730,0.466,0.922,0.656,0.310,0.539,0.509,�k�k��,8.4,�L
2024/02/22,08:30,0.489,0.730,0.466,0.922,0.655,0.311,0.539,0.509,�k�k��,8.6,�L
2024/02/22,08:40,0.487,0.727,0.467,0.920,0.654,0.309,0.540,0.509,�k�k��,8.4,�L
2024/02/22,08:50,0.487,0.725,0.465,0.920,0.652,0.309,0.538,0.509,�k�k��,7.5,�L
2024/02/22,09:00,0.485,0.725,0.464,0.920,0.651,0.310,0.537,0.507,�k�k��,7.7,�L
2024/02/22,09:10,0.485,0.725,0.459,0.917,0.649,0.309,0.537,0.507,�k�k��,7.5,�L
2024/02/22,09:20,0.484,0.724,0.453,0.914,0.647,0.309,0.538,0.507,�k�k��,7.8,�L
2024/02/22,09:30,0.482,0.722,0.455,0.914,0.647,0.308,0.536,0.506,�k�k��,7.4,�L
2024/02/22,09:40,0.485,0.720,0.454,0.912,0.645,0.308,0.536,0.506,�k�k��,7.0,�L
2024/02/22,09:50,0.482,0.720,0.452,0.910,0.645,0.308,0.534,0.504,�k,7.9,�L
2024/02/22,10:00,0.482,0.717,0.452,0.907,0.642,0.307,0.535,0.506,�k�k��,7.5,�L
2024/02/22,10:10,0.481,0.715,0.452,0.905,0.642,0.305,0.534,0.504,�k,6.7,�L
2024/02/22,10:20,0.477,0.711,0.454,0.903,0.639,0.303,0.533,0.502,�k�k��,7.9,�L
2024/02/22,10:30,0.477,0.709,0.455,0.902,0.638,0.305,0.532,0.503,�k�k��,7.7,�L
2024/02/22,10:40,0.476,0.710,0.453,0.900,0.634,0.305,0.530,0.502,�k�k��,7.1,�L
2024/02/22,10:50,0.474,0.705,0.453,0.897,0.632,0.303,0.530,0.501,�k,6.8,�L
2024/02/22,11:00,0.474,0.706,0.450,0.898,0.632,0.303,0.528,0.500,�k�k��,6.8,�L
2024/02/22,11:10,0.471,0.705,0.450,0.896,0.630,0.302,0.527,0.501,�k,6.8,�L
2024/02/22,11:20,0.471,0.703,0.448,0.896,0.631,0.302,0.530,0.501,�k�k��,6.9,�L
2024/02/22,11:30,0.469,0.702,0.449,0.894,0.628,0.300,0.530,0.500,�k�k��,6.9,�L
2024/02/22,11:40,0.469,0.701,0.448,0.894,0.629,0.299,0.530,0.502,�k�k��,7.3,�L
2024/02/22,11:50,0.469,0.701,0.450,0.893,0.626,0.297,0.529,0.502,�k�k��,7.8,�L
2024/02/22,12:00,0.469,0.703,0.448,0.892,0.625,0.298,0.528,0.500,�k�k��,7.9,�L
2024/02/22,12:10,0.468,0.702,0.450,0.891,0.625,0.299,0.530,0.501,�k�k��,7.1,�L
2024/02/22,12:20,0.468,0.701,0.450,0.891,0.627,0.298,0.530,0.499,�k�k��,6.6,�L
2024/02/22,12:30,0.470,0.702,0.449,0.893,0.627,0.298,0.529,0.501,�k�k��,7.5,�L
2024/02/22,12:40,0.470,0.704,0.448,0.891,0.625,0.298,0.530,0.503,�k�k��,6.9,�L
2024/02/22,12:50,0.470,0.701,0.449,0.891,0.626,0.297,0.530,0.501,�k�k��,6.6,�L
2024/02/22,13:00,0.471,0.701,0.450,0.893,0.626,0.299,0.530,0.501,�k�k��,7.1,�L
2024/02/22,13:10,0.471,0.705,0.450,0.891,0.628,0.298,0.531,0.500,�k�k��,7.1,�L
2024/02/22,13:20,0.471,0.705,0.450,0.891,0.626,0.299,0.531,0.502,�k�k��,7.2,�L
2024/02/22,13:30,0.471,0.704,0.449,0.890,0.628,0.298,0.530,0.502,�k�k��,5.8,��
2024/02/22,13:40,0.470,0.704,0.447,0.891,0.628,0.297,0.531,0.502,�k�k��,6.0,��
2024/02/22,13:50,0.469,0.703,0.446,0.890,0.626,0.297,0.533,0.501,�k�k��,6.0,��
2024/02/22,14:00,0.469,0.705,0.445,0.886,0.630,0.298,0.532,0.501,�k�k��,5.8,��
2024/02/22,14:10,0.469,0.706,0.447,0.888,0.628,0.296,0.531,0.502,�k�k��,5.8,��
2024/02/22,14:20,0.471,0.702,0.447,0.887,0.627,0.297,0.531,0.500,�k�k��,6.5,��
2024/02/22,14:30,0.469,0.704,0.447,0.885,0.628,0.295,0.531,0.501,�k�k��,7.2,��
2024/02/22,14:40,0.469,0.703,0.446,0.888,0.628,0.296,0.532,0.503,�k,6.6,��
2024/02/22,14:50,0.471,0.704,0.446,0.888,0.629,0.297,0.532,0.502,�k,5.9,��
2024/02/22,15:00,0.471,0.705,0.447,0.889,0.630,0.296,0.533,0.503,�k,6.7,��
2024/02/22,15:10,0.472,0.707,0.446,0.888,0.630,0.295,0.534,0.504,�k�k��,6.8,��
2024/02/22,15:20,0.473,0.707,0.445,0.889,0.630,0.296,0.533,0.503,�k�k��,6.7,��
2024/02/22,15:30,0.472,0.706,0.447,0.891,0.631,0.296,0.535,0.503,�k�k��,6.9,��
2024/02/22,15:40,0.471,0.708,0.449,0.891,0.632,0.296,0.535,0.503,�k,6.8,��
2024/02/22,15:50,0.471,0.708,0.447,0.890,0.632,0.298,0.535,0.505,�k�k��,6.3,��
2024/02/22,16:00,0.474,0.709,0.449,0.891,0.633,0.296,0.533,0.503,�k�k��,6.3,��
2024/02/22,16:10,0.474,0.709,0.450,0.893,0.635,0.297,0.534,0.504,�k�k��,5.9,��
2024/02/22,16:20,0.474,0.710,0.447,0.892,0.634,0.298,0.534,0.503,�k�k��,5.3,��
2024/02/22,16:30,0.473,0.709,0.448,0.892,0.636,0.296,0.535,0.503,�k�k��,5.4,��
2024/02/22,16:40,0.475,0.712,0.448,0.894,0.635,0.297,0.536,0.505,�k,7.0,��
2024/02/22,16:50,0.475,0.709,0.449,0.893,0.636,0.296,0.536,0.506,�k,7.7,��
2024/02/22,17:00,0.474,0.713,0.451,0.893,0.635,0.297,0.534,0.505,�k,8.3,��
2024/02/22,17:10,0.475,0.712,0.449,0.892,0.637,0.298,0.536,0.506,�k,7.3,��
2024/02/22,17:20,0.474,0.711,0.450,0.895,0.637,0.297,0.536,0.505,�k,6.5,��
2024/02/22,17:30,0.475,0.713,0.450,0.895,0.638,0.298,0.533,0.505,�k,5.9,��
2024/02/22,17:40,0.477,0.713,0.450,0.896,0.638,0.298,0.535,0.507,�k�k��,4.9,��
2024/02/22,17:50,0.476,0.713,0.451,0.895,0.637,0.298,0.536,0.506,�k�k��,6.1,��
2024/02/22,18:00,0.476,0.714,0.451,0.896,0.638,0.298,0.535,0.508,�k�k��,6.3,��
2024/02/22,18:10,0.477,0.714,0.449,0.895,0.640,0.298,0.537,0.506,�k�k��,7.2,��
2024/02/22,18:20,0.477,0.716,0.451,0.896,0.639,0.299,0.537,0.507,�k�k��,6.0,��
2024/02/22,18:30,0.476,0.716,0.452,0.895,0.639,0.299,0.536,0.506,�k�k��,7.2,��
2024/02/22,18:40,0.476,0.716,0.451,0.896,0.640,0.298,0.536,0.507,�k�k��,6.8,��
2024/02/22,18:50,0.477,0.716,0.451,0.896,0.640,0.298,0.536,0.507,�k,7.3,��
2024/02/22,19:00,0.477,0.717,0.451,0.898,0.639,0.297,0.536,0.506,�k,6.7,��
2024/02/22,19:10,0.478,0.716,0.451,0.897,0.640,0.298,0.537,0.506,�k,7.0,��
2024/02/22,19:20,0.476,0.715,0.452,0.897,0.641,0.298,0.537,0.507,�k,6.0,��
2024/02/22,19:30,0.478,0.717,0.453,0.897,0.640,0.300,0.538,0.506,�k,5.6,��
2024/02/22,19:40,0.479,0.718,0.453,0.899,0.643,0.299,0.537,0.506,�k,4.4,��
2024/02/22,19:50,0.476,0.716,0.452,0.899,0.642,0.300,0.538,0.507,�k,5.0,��
2024/02/22,20:00,0.477,0.718,0.451,0.899,0.643,0.299,0.536,0.507,�k,6.1,��
2024/02/22,20:10,0.477,0.716,0.452,0.898,0.643,0.299,0.537,0.507,�k,6.6,��
2024/02/22,20:20,0.479,0.719,0.453,0.902,0.643,0.299,0.538,0.507,�k,6.4,��
2024/02/22,20:30,0.479,0.717,0.453,0.901,0.642,0.298,0.537,0.507,�k,6.5,��
2024/02/22,20:40,0.479,0.719,0.452,0.899,0.642,0.300,0.538,0.508,�k,5.2,��
2024/02/22,20:50,0.478,0.718,0.452,0.902,0.642,0.300,0.537,0.508,�k,5.8,��
2024/02/22,21:00,0.480,0.716,0.451,0.902,0.645,0.299,0.537,0.505,�k,5.0,��
2024/02/22,21:10,0.479,0.720,0.453,0.899,0.645,0.298,0.538,0.508,�k,5.6,��
2024/02/22,21:20,0.478,0.719,0.452,0.901,0.644,0.301,0.537,0.507,�k,4.8,��
2024/02/22,21:30,0.479,0.719,0.453,0.901,0.644,0.299,0.537,0.508,�k�k��,5.7,��
2024/02/22,21:40,0.480,0.720,0.453,0.901,0.644,0.300,0.538,0.507,�k�k��,5.2,��
2024/02/22,21:50,0.482,0.719,0.454,0.902,0.643,0.298,0.537,0.509,�k�k��,6.2,��
2024/02/22,22:00,0.478,0.719,0.453,0.903,0.645,0.301,0.536,0.507,�k�k��,4.9,��
2024/02/22,22:10,0.479,0.719,0.454,0.901,0.644,0.298,0.536,0.508,�k�k��,4.9,��
2024/02/22,22:20,0.479,0.722,0.453,0.903,0.645,0.299,0.537,0.508,�k�k��,4.3,��
2024/02/22,22:30,0.479,0.719,0.454,0.903,0.647,0.300,0.536,0.507,�k�k��,4.5,��
2024/02/22,22:40,0.478,0.721,0.453,0.903,0.645,0.301,0.537,0.506,�k�k��,4.4,��
2024/02/22,22:50,0.480,0.721,0.454,0.903,0.645,0.299,0.537,0.508,�k��,3.4,��
2024/02/22,23:00,0.480,0.721,0.453,0.903,0.643,0.300,0.538,0.507,�k�k��,2.6,��
2024/02/22,23:10,0.478,0.720,0.454,0.905,0.646,0.301,0.537,0.507,�k�k��,3.5,��
2024/02/22,23:20,0.479,0.720,0.455,0.902,0.645,0.300,0.538,0.510,�k�k��,4.1,��
2024/02/22,23:30,0.481,0.721,0.454,0.903,0.647,0.300,0.538,0.508,�k�k��,3.8,��
2024/02/22,23:40,0.481,0.724,0.454,0.906,0.646,0.299,0.539,0.509,�k�k��,4.1,��
2024/02/22,23:50,0.482,0.722,0.455,0.905,0.644,0.301,0.538,0.507,�k�k��,4.2,��
